AEZ2135 LICB-LIMZ

Flight info

Callsign AEZ2135
Flight time N/A
Altitude 36000
Route ENEPA DCT DORAS DCT TINTO DCT DOBIM R16 GUNPI DCT LAGEN
Aircraft B737/M-SDE2E3FGHIRWXY/LB1

Departure

Time 2026-05-05 10:08
Airport Comiso Airport (LICB)

Arrival

Time N/A
Airport Cuneo International Airport (LIMZ)
Time Latitude Longitude Altitude Speed Heading
2026-05-05 09:47 36.99776 14.60737 722 ft 0 kts 319°
2026-05-05 10:00 36.99773 14.60740 721 ft 3 kts 320°
2026-05-05 10:01 36.99751 14.60759 724 ft 4 kts 335°
2026-05-05 10:01 36.99726 14.60767 720 ft 4 kts 12°
2026-05-05 10:01 36.99712 14.60758 720 ft 1 kts 50°
2026-05-05 10:01 36.99710 14.60755 720 ft 0 kts 50°
2026-05-05 10:03 36.99713 14.60760 720 ft 4 kts 50°
2026-05-05 10:04 36.99751 14.60815 724 ft 13 kts 50°
2026-05-05 10:04 36.99827 14.60928 727 ft 20 kts 50°
2026-05-05 10:04 36.99913 14.61054 733 ft 17 kts 49°
2026-05-05 10:04 36.99934 14.61086 734 ft 15 kts 49°
2026-05-05 10:05 36.99967 14.61133 737 ft 8 kts 49°
2026-05-05 10:05 36.99979 14.61150 737 ft 0 kts 48°
2026-05-05 10:05 37.00002 14.61182 739 ft 11 kts 49°
2026-05-05 10:06 37.00074 14.61292 744 ft 22 kts 51°
2026-05-05 10:06 37.00186 14.61462 750 ft 29 kts 50°
2026-05-05 10:06 37.00312 14.61654 760 ft 28 kts 52°
2026-05-05 10:06 37.00307 14.61833 763 ft 19 kts 159°
2026-05-05 10:07 37.00224 14.61839 761 ft 9 kts 211°
2026-05-05 10:07 37.00216 14.61828 757 ft 0 kts 229°
2026-05-05 10:07 37.00172 14.61765 757 ft 42 kts 229°
2026-05-05 10:07 36.99774 14.61172 732 ft 131 kts 230°
2026-05-05 10:08 36.99095 14.60158 1197 ft 164 kts 230°
2026-05-05 10:08 36.98331 14.59006 2198 ft 173 kts 230°
2026-05-05 10:08 36.97396 14.58086 3132 ft 183 kts 195°
2026-05-05 10:08 36.96039 14.58254 3519 ft 217 kts 154°
2026-05-05 10:09 36.94655 14.59270 3978 ft 240 kts 145°
2026-05-05 10:09 36.93410 14.60766 4459 ft 263 kts 124°
2026-05-05 10:09 36.92707 14.62910 5311 ft 275 kts 100°
2026-05-05 10:09 36.92623 14.65415 6056 ft 294 kts 85°
2026-05-05 10:10 36.93219 14.67878 6679 ft 315 kts 58°
2026-05-05 10:10 36.94819 14.69857 7078 ft 340 kts 29°
2026-05-05 10:10 36.97113 14.70639 7910 ft 344 kts 358°
2026-05-05 10:10 36.99354 14.69916 9362 ft 330 kts 330°
2026-05-05 10:11 37.01001 14.68018 10727 ft 320 kts 302°
2026-05-05 10:11 37.02106 14.65566 11525 ft 332 kts 300°
2026-05-05 10:11 37.03336 14.62979 11800 ft 356 kts 301°
2026-05-05 10:11 37.04634 14.60291 12465 ft 365 kts 300°
2026-05-05 10:12 37.05928 14.57579 13326 ft 368 kts 300°
2026-05-05 10:12 37.07231 14.54818 14222 ft 370 kts 299°
2026-05-05 10:12 37.08625 14.52082 14974 ft 375 kts 308°
2026-05-05 10:12 37.10569 14.49876 15708 ft 383 kts 324°
2026-05-05 10:13 37.12892 14.48185 16472 ft 388 kts 329°
2026-05-05 10:13 37.15280 14.46581 17162 ft 393 kts 329°
2026-05-05 10:13 37.17689 14.44941 17845 ft 397 kts 329°
2026-05-05 10:13 37.20121 14.43244 18517 ft 401 kts 328°
2026-05-05 10:14 37.22551 14.41505 19102 ft 405 kts 327°
2026-05-05 10:14 37.24953 14.39713 19712 ft 408 kts 326°
2026-05-05 10:14 37.27385 14.37869 20334 ft 411 kts 326°
2026-05-05 10:14 37.29843 14.35996 20910 ft 414 kts 326°
2026-05-05 10:15 37.32312 14.34116 21492 ft 418 kts 326°
2026-05-05 10:15 37.34816 14.32215 22043 ft 421 kts 326°
2026-05-05 10:15 37.37332 14.30308 22569 ft 425 kts 326°
2026-05-05 10:15 37.39883 14.28377 23109 ft 429 kts 327°
2026-05-05 10:16 37.42442 14.26439 23632 ft 432 kts 327°
2026-05-05 10:16 37.44999 14.24502 24058 ft 435 kts 327°
2026-05-05 10:16 37.47595 14.22535 24512 ft 437 kts 327°
2026-05-05 10:16 37.50202 14.20558 24980 ft 439 kts 326°
2026-05-05 10:17 37.52833 14.18561 25418 ft 442 kts 326°
2026-05-05 10:17 37.55466 14.16560 25852 ft 444 kts 326°
2026-05-05 10:17 37.58126 14.14537 26277 ft 447 kts 326°
2026-05-05 10:17 37.60787 14.12510 26691 ft 449 kts 326°
2026-05-05 10:18 37.63474 14.10463 27083 ft 451 kts 326°
2026-05-05 10:18 37.66162 14.08414 27459 ft 453 kts 326°
2026-05-05 10:18 37.68839 14.06371 27826 ft 456 kts 326°
2026-05-05 10:18 37.71553 14.04297 28185 ft 458 kts 326°
2026-05-05 10:19 37.74294 14.02202 28543 ft 461 kts 326°
2026-05-05 10:19 37.77038 14.00111 28922 ft 462 kts 327°
2026-05-05 10:19 37.79921 13.98313 29402 ft 464 kts 334°
2026-05-05 10:19 37.82909 13.96782 30026 ft 461 kts 336°
2026-05-05 10:20 37.85894 13.95354 30560 ft 459 kts 336°
2026-05-05 10:20 37.87880 13.94417 30869 ft 457 kts 336°